FW8499 Weather Reports


time (UTC)temp
F
wind
direction
speed
knots
gust
knots
rain 1hr
in
rain 24hr
in
rain mn
in
humidity
%
barometer
mb
20260510211403 43 60 0.0 0.0 0.00 0.00 0.00 68 1015.2
20260510210905 44 60 0.0 0.0 0.00 0.00 0.00 68 1015.2
20260510210404 44 60 0.0 0.0 0.00 0.00 0.00 68 1015.2
20260510205904 44 60 0.0 0.0 0.00 0.00 0.00 68 1015.3
20260510205404 44 60 0.0 0.9 0.00 0.00 0.00 67 1015.3
20260510204903 45 60 0.0 0.9 0.00 0.00 0.00 66 1015.5
20260510204404 45 60 0.0 0.9 0.00 0.00 0.00 66 1015.5
20260510203903 45 60 0.0 0.9 0.00 0.00 0.00 66 1015.5
20260510202903 46 60 0.0 0.0 0.00 0.00 0.00 66 1015.5
20260510202404 46 60 0.0 1.7 0.00 0.00 0.00 65 1015.6
20260510201404 46 38 0.0 2.6 0.00 0.00 0.00 65 1015.5
20260510200904 47 49 0.0 2.6 0.00 0.00 0.00 65 1015.6
20260510195904 47 57 0.0 2.6 0.00 0.00 0.00 64 1015.7
20260510195403 48 54 0.0 2.6 0.00 0.00 0.00 64 1015.7
20260510194904 48 67 0.9 5.2 0.00 0.00 0.00 62 1015.8
20260510194404 48 47 1.7 5.2 0.00 0.00 0.00 62 1015.8
20260510193903 48 60 0.9 2.6 0.00 0.00 0.00 62 1015.9
20260510192904 49 69 1.7 5.2 0.00 0.00 0.00 60 1015.9
20260510191904 49 56 1.7 2.6 0.00 0.00 0.00 59 1015.9
20260510191403 50 46 0.9 6.1 0.00 0.00 0.00 59 1016.0
20260510190905 50 61 0.9 6.1 0.00 0.00 0.00 58 1016.0
20260510190405 50 60 1.7 6.1 0.00 0.00 0.00 58 1016.0
20260510185905 51 54 2.6 7.0 0.00 0.00 0.00 58 1016.1
20260510185405 51 57 2.6 7.8 0.00 0.00 0.00 57 1016.1
20260510184906 51 55 2.6 7.8 0.00 0.00 0.00 56 1016.1
20260510184404 52 70 2.6 7.8 0.00 0.00 0.00 55 1016.2
20260510183905 52 56 2.6 8.7 0.00 0.00 0.00 55 1016.2
20260510183405 53 57 2.6 8.7 0.00 0.00 0.00 55 1016.2
20260510182905 53 59 2.6 7.8 0.00 0.00 0.00 53 1016.1
20260510182405 54 53 4.3 10.4 0.00 0.00 0.00 52 1016.1
20260510180905 57 63 2.6 8.7 0.00 0.00 0.00 48 1016.1
20260510180405 58 87 1.7 8.7 0.00 0.00 0.00 47 1016.0
20260510175905 59 61 2.6 8.7 0.00 0.00 0.00 45 1016.1
20260510175405 60 65 2.6 8.7 0.00 0.00 0.00 44 1016.0
20260510174405 61 44 4.3 10.4 0.00 0.00 0.00 44 1016.1
20260510173905 61 64 4.3 12.2 0.00 0.00 0.00 44 1016.1
20260510173404 61 52 2.6 12.2 0.00 0.00 0.00 44 1016.1
20260510172905 61 62 3.5 11.3 0.00 0.00 0.00 45 1016.2
20260510172406 61 35 3.5 11.3 0.00 0.00 0.00 44 1016.2
20260510171905 61 58 2.6 7.0 0.00 0.00 0.00 46 1016.2
20260510171405 60 41 2.6 7.8 0.00 0.00 0.00 46 1016.3
20260510170905 61 66 2.6 8.7 0.00 0.00 0.00 45 1016.3
20260510170405 61 42 3.5 10.4 0.00 0.00 0.00 46 1016.4
20260510165905 60 75 4.3 10.4 0.00 0.00 0.00 46 1016.4
20260510165404 60 57 4.3 10.4 0.00 0.00 0.00 47 1016.4
20260510164905 61 49 2.6 8.7 0.00 0.00 0.00 46 1016.5
20260510163905 60 49 3.5 10.4 0.00 0.00 0.00 48 1016.6
20260510163405 60 56 3.5 10.4 0.00 0.00 0.00 47 1016.7
20260510162905 60 43 2.6 7.8 0.00 0.00 0.00 46 1016.7
20260510162405 61 67 1.7 10.4 0.00 0.00 0.00 47 1016.8
20260510161905 61 67 2.6 10.4 0.00 0.00 0.00 45 1016.9
20260510160905 61 34 2.6 7.8 0.00 0.00 0.00 46 1016.8
20260510160405 61 64 2.6 8.7 0.00 0.00 0.00 47 1016.8
20260510155405 60 60 2.6 10.4 0.00 0.00 0.00 48 1017.1
20260510154906 60 59 4.3 10.4 0.00 0.00 0.00 45 1017.2
20260510154405 61 62 3.5 10.4 0.00 0.00 0.00 47 1017.1
20260510153405 62 62 3.5 11.3 0.00 0.00 0.00 44 1017.1
20260510152904 62 46 4.3 10.4 0.00 0.00 0.00 45 1017.2
20260510152405 61 49 2.6 8.7 0.00 0.00 0.00 47 1017.2
20260510151904 61 65 3.5 13.9 0.00 0.00 0.00 46 1017.2
20260510151405 61 46 4.3 13.9 0.00 0.00 0.00 45 1017.2
20260510150905 61 53 2.6 8.7 0.00 0.00 0.00 45 1017.3
20260510150404 62 72 0.9 7.8 0.00 0.00 0.00 44 1017.4
20260510145904 63 0 0.0 0.0 0.00 0.00 0.00 45 1017.4
20260510145405 63 0 0.0 0.0 0.00 0.00 0.00 45 1017.5
20260510144905 63 0 0.0 0.0 0.00 0.00 0.00 45 1017.4
20260510143905 63 0 0.0 0.0 0.00 0.00 0.00 45 1017.5
20260510142405 63 0 0.0 5.2 0.00 0.00 0.00 45 1017.6
20260510141405 63 15 5.2 6.1 0.00 0.00 0.00 45 1017.7
20260510140905 63 15 5.2 11.3 0.00 0.00 0.00 45 1017.6
20260510140405 63 40 6.1 11.3 0.00 0.00 0.00 45 1017.8
20260510135904 63 50 4.3 7.8 0.00 0.00 0.00 44 1017.7
20260510134905 62 75 5.2 7.0 0.00 0.00 0.00 46 1017.8
20260510134407 62 49 7.0 7.0 0.00 0.00 0.00 46 1017.7
20260510133905 62 49 7.0 13.9 0.00 0.00 0.00 46 1018.0
20260510133408 61 32 2.6 13.9 0.00 0.00 0.00 47 1017.9
20260510132905 61 28 5.2 13.9 0.00 0.00 0.00 47 1017.9
20260510131905 60 43 3.5 10.4 0.00 0.00 0.00 51 1018.0
20260510131405 60 73 4.3 10.4 0.00 0.00 0.00 50 1018.2
20260510130905 60 74 4.3 10.4 0.00 0.00 0.00 51 1018.2
20260510130404 60 45 3.5 13.0 0.00 0.00 0.00 51 1018.2
20260510125905 59 66 3.5 13.0 0.00 0.00 0.00 52 1018.2
20260510125405 59 69 3.5 17.4 0.00 0.00 0.00 54 1018.2
20260510124906 58 65 4.3 17.4 0.00 0.00 0.00 52 1018.4
20260510124404 58 53 2.6 13.0 0.00 0.00 0.00 54 1018.4
20260510123905 59 67 6.1 13.0 0.00 0.00 0.00 53 1018.5
20260510123405 59 66 5.2 10.4 0.00 0.00 0.00 53 1018.6
20260510122905 58 24 5.2 12.2 0.00 0.00 0.00 53 1018.6
20260510122404 59 55 1.7 12.2 0.00 0.00 0.00 53 1018.8
20260510121905 59 43 3.5 12.2 0.00 0.00 0.00 54 1018.8
20260510121405 59 48 5.2 10.4 0.00 0.00 0.00 54 1018.8
20260510120905 58 50 4.3 13.0 0.00 0.00 0.00 55 1018.8
20260510120405 58 61 5.2 13.9 0.00 0.00 0.00 53 1019.0
20260510115905 58 64 6.1 13.9 0.00 0.00 0.00 55 1019.1
20260510115405 57 55 6.1 12.2 0.00 0.00 0.00 57 1019.0
20260510114905 57 32 3.5 11.3 0.00 0.00 0.00 58 1019.1
20260510114405 56 66 5.2 11.3 0.00 0.00 0.00 57 1019.1
20260510113904 56 56 4.3 8.7 0.00 0.00 0.00 58 1019.2
20260510113405 56 27 2.6 7.8 0.00 0.00 0.00 60 1019.3
20260510112405 56 59 5.2 13.0 0.00 0.00 0.00 59 1019.4
20260510111905 56 61 5.2 13.0 0.00 0.00 0.00 60 1019.5
20260510111404 55 54 5.2 13.0 0.00 0.00 0.00 59 1019.4
20260510110905 55 44 5.2 13.0 0.00 0.00 0.00 60 1019.4
20260510110405 55 36 2.6 11.3 0.00 0.00 0.00 61 1019.5
20260510104905 54 28 2.6 10.4 0.00 0.00 0.00 62 1019.7
20260510104405 54 26 4.3 10.4 0.00 0.00 0.00 63 1019.7
20260510103904 54 29 4.3 12.2 0.00 0.00 0.00 64 1019.7
20260510103406 54 58 4.3 12.2 0.00 0.00 0.00 65 1019.7
20260510102904 54 39 2.6 10.4 0.00 0.00 0.00 66 1019.7
20260510102405 53 58 4.3 12.2 0.00 0.00 0.00 66 1019.8
20260510101906 53 46 4.3 12.2 0.00 0.00 0.00 66 1019.8
20260510100904 53 45 2.6 10.4 0.00 0.00 0.00 67 1019.8
20260510100405 53 67 5.2 10.4 0.00 0.00 0.00 67 1019.8
20260510095905 52 59 3.5 10.4 0.00 0.00 0.00 69 1019.8
20260510095406 52 37 4.3 10.4 0.00 0.00 0.00 69 1019.9
20260510094904 52 21 1.7 8.7 0.00 0.00 0.00 70 1019.9
20260510094405 52 49 2.6 11.3 0.00 0.00 0.00 71 1019.9
20260510093906 51 30 4.3 11.3 0.00 0.00 0.00 70 1020.0
20260510092404 51 36 2.6 10.4 0.00 0.00 0.00 72 1020.1
20260510091905 51 62 5.2 10.4 0.00 0.00 0.00 72 1020.1
20260510091406 51 38 1.7 13.9 0.00 0.00 0.00 73 1020.1
20260510090405 51 49 4.3 10.4 0.00 0.00 0.00 72 1020.2
20260510085904 51 48 4.3 10.4 0.00 0.00 0.00 72 1020.3
20260510085405 51 49 5.2 10.4 0.00 0.00 0.00 72 1020.3
20260510084905 51 65 4.3 10.4 0.00 0.00 0.00 73 1020.3
20260510083405 52 48 6.1 13.0 0.00 0.00 0.00 71 1020.3
20260510082905 52 56 4.3 10.4 0.00 0.00 0.00 71 1020.4
20260510082405 52 40 2.6 10.4 0.00 0.00 0.00 72 1020.4
20260510081905 52 34 3.5 10.4 0.00 0.00 0.00 73 1020.3
20260510080905 51 40 2.6 8.7 0.00 0.00 0.00 73 1020.2
20260510080405 51 23 2.6 8.7 0.00 0.00 0.00 74 1020.1
20260510075905 51 47 2.6 7.8 0.00 0.00 0.00 74 1020.0
20260510075404 51 31 2.6 8.7 0.00 0.00 0.00 74 1020.1
20260510074905 51 57 2.6 10.4 0.00 0.00 0.00 74 1020.1
20260510074405 50 30 3.5 10.4 0.00 0.00 0.00 74 1020.0
20260510073905 50 24 4.3 11.3 0.00 0.00 0.00 75 1020.0
20260510073405 50 21 5.2 11.3 0.00 0.00 0.00 75 1020.0
20260510072904 49 20 4.3 11.3 0.00 0.00 0.00 76 1020.0
20260510071905 49 8 3.5 12.2 0.00 0.00 0.00 76 1020.0
20260510070904 49 29 6.1 13.9 0.00 0.00 0.00 77 1019.9
20260510070405 49 67 3.5 14.8 0.00 0.00 0.00 77 1019.9
20260510065905 49 3 3.5 14.8 0.00 0.00 0.00 77 1019.8
20260510065406 48 32 4.3 12.2 0.00 0.00 0.00 78 1019.8
20260510064905 48 55 4.3 11.3 0.00 0.00 0.00 78 1019.8
20260510064404 48 23 4.3 10.4 0.00 0.00 0.00 79 1019.7
20260510063905 48 56 4.3 10.4 0.00 0.00 0.00 79 1019.7
20260510062404 48 0 2.6 10.4 0.00 0.00 0.00 79 1019.7
20260510061905 48 33 5.2 10.4 0.00 0.00 0.00 80 1019.7
20260510061405 48 42 2.6 7.0 0.00 0.00 0.00 80 1019.7
20260510055405 48 9 5.2 11.3 0.00 0.00 0.00 81 1019.7
20260510054405 48 44 5.2 13.0 0.00 0.00 0.00 81 1019.8
20260510053905 48 14 2.6 8.7 0.00 0.00 0.00 81 1019.8
20260510052904 48 37 2.6 10.4 0.00 0.00 0.00 81 1019.7
20260510052405 48 40 4.3 10.4 0.00 0.00 0.00 81 1019.7
20260510051904 48 41 2.6 10.4 0.00 0.00 0.00 82 1019.8
20260510051405 48 26 2.6 10.4 0.00 0.00 0.00 82 1019.8
20260510050904 48 18 3.5 7.8 0.00 0.00 0.00 82 1019.9
20260510050405 48 25 3.5 10.4 0.00 0.00 0.00 82 1019.8
20260510045905 48 20 2.6 10.4 0.00 0.00 0.00 81 1019.7
20260510045404 48 26 3.5 7.8 0.00 0.00 0.00 81 1019.7
20260510044405 48 54 2.6 10.4 0.00 0.00 0.00 81 1019.7
20260510043904 48 45 4.3 8.7 0.00 0.00 0.00 81 1019.6
20260510042404 49 53 4.3 12.2 0.00 0.00 0.00 81 1019.6
20260510041906 49 30 2.6 10.4 0.00 0.00 0.00 82 1019.5
20260510041404 49 45 4.3 10.4 0.00 0.00 0.00 82 1019.7
20260510040905 49 31 1.7 8.7 0.00 0.00 0.00 82 1019.6
20260510035404 49 40 0.9 10.4 0.00 0.00 0.00 82 1019.6
20260510034905 49 30 2.6 12.2 0.00 0.00 0.00 82 1019.7
20260510034404 49 36 1.7 12.2 0.00 0.00 0.00 82 1019.7
20260510033904 49 31 3.5 12.2 0.00 0.00 0.00 82 1019.7
20260510033405 49 32 2.6 7.8 0.00 0.00 0.00 81 1019.7
20260510032404 49 12 1.7 10.4 0.00 0.00 0.00 81 1019.8
20260510031905 49 39 2.6 10.4 0.00 0.00 0.00 81 1019.9
20260510031405 49 49 4.3 8.7 0.00 0.00 0.00 81 1020.0
20260510030406 50 45 1.7 10.4 0.00 0.00 0.00 82 1020.0
20260510025904 50 38 1.7 10.4 0.00 0.00 0.00 82 1020.0
20260510025404 50 32 2.6 10.4 0.00 0.00 0.00 82 1020.1
20260510024904 50 38 2.6 7.8 0.00 0.00 0.00 82 1020.1
20260510024404 50 62 2.6 7.0 0.00 0.00 0.00 83 1020.2
20260510023905 50 30 2.6 7.0 0.00 0.00 0.00 82 1020.1
20260510023404 50 4 1.7 5.2 0.00 0.00 0.00 82 1020.1
20260510022905 50 39 1.7 7.8 0.00 0.00 0.00 82 1020.1
20260510022405 50 24 2.6 7.8 0.00 0.00 0.00 82 1020.1
20260510021904 50 44 0.9 7.0 0.00 0.00 0.00 82 1020.1
20260510021405 50 31 1.7 10.4 0.00 0.00 0.00 82 1020.1
20260510020904 50 37 1.7 10.4 0.00 0.00 0.00 82 1020.3
20260510020405 50 41 1.7 7.8 0.00 0.00 0.00 82 1020.3
20260510015904 50 54 4.3 7.8 0.00 0.00 0.00 82 1020.3
20260510015404 50 22 2.6 8.7 0.00 0.00 0.00 82 1020.4
20260510014905 50 26 3.5 8.7 0.00 0.00 0.00 82 1020.4
20260510014404 50 53 2.6 8.7 0.00 0.00 0.00 82 1020.4
20260510013905 50 32 3.5 8.7 0.00 0.00 0.00 82 1020.3
20260510012904 50 31 2.6 7.8 0.00 0.00 0.00 82 1020.3
20260510012404 50 24 1.7 8.7 0.00 0.00 0.00 82 1020.3
20260510011904 50 45 4.3 10.4 0.00 0.00 0.00 82 1020.3
20260510011404 50 51 3.5 10.4 0.00 0.00 0.00 83 1020.3
20260510010905 50 26 1.7 7.0 0.00 0.00 0.00 83 1020.3
20260510010404 50 31 2.6 7.8 0.00 0.00 0.00 83 1020.2
20260510005405 49 8 1.7 7.0 0.00 0.00 0.00 83 1020.0
20260510004904 49 48 2.6 7.0 0.00 0.00 0.00 83 1019.9
20260510004405 49 42 1.7 7.0 0.00 0.00 0.00 83 1019.9
20260510003906 49 19 2.6 7.0 0.00 0.00 0.00 83 1019.9
20260510002905 50 14 1.7 11.3 0.00 0.00 0.00 82 1019.8
20260510002404 50 23 3.5 10.4 0.00 0.00 0.00 83 1020.0
20260510001905 50 32 3.5 10.4 0.00 0.00 0.00 83 1020.1
20260510001405 50 21 1.7 7.0 0.00 0.00 0.00 83 1020.1
20260510000904 50 42 2.6 7.0 0.00 0.00 0.00 83 1020.2
20260509235905 50 36 3.5 7.8 0.00 0.00 0.00 82 1020.2
20260509235404 50 24 1.7 7.8 0.00 0.00 0.00 82 1020.1
20260509234904 50 25 3.5 7.8 0.00 0.00 0.00 82 1020.2
20260509234404 50 15 3.5 7.8 0.00 0.00 0.00 82 1020.2
20260509233904 50 52 2.6 6.1 0.00 0.00 0.00 82 1020.2
20260509233405 50 45 1.7 7.8 0.00 0.00 0.00 82 1020.3
20260509232905 50 57 2.6 11.3 0.00 0.00 0.00 82 1020.3
20260509232404 50 34 2.6 11.3 0.00 0.00 0.00 82 1020.4
20260509231905 50 36 2.6 8.7 0.00 0.00 0.00 82 1020.5
20260509231404 50 28 2.6 8.7 0.00 0.00 0.00 81 1020.4
20260509230405 50 61 2.6 10.4 0.00 0.00 0.00 81 1020.4
20260509225904 50 21 4.3 10.4 0.00 0.00 0.00 81 1020.3
20260509225404 50 42 4.3 10.4 0.00 0.00 0.00 81 1020.3
20260509224904 50 22 1.7 7.0 0.00 0.00 0.00 80 1020.2
20260509224405 50 35 3.5 7.0 0.00 0.00 0.00 79 1020.4
20260509223904 50 37 2.6 6.1 0.00 0.00 0.00 78 1020.4
20260509222904 51 48 1.7 5.2 0.00 0.00 0.00 77 1020.4
20260509222404 51 17 2.6 5.2 0.00 0.00 0.00 76 1020.4
20260509221404 51 51 1.7 7.0 0.00 0.00 0.00 75 1020.3
20260509220905 51 47 2.6 6.1 0.00 0.00 0.00 74 1020.3
20260509220404 52 52 0.9 5.2 0.00 0.00 0.00 73 1020.3
20260509214404 52 35 1.7 7.0 0.00 0.00 0.00 71 1020.1
20260509213904 53 49 2.6 6.1 0.00 0.00 0.00 69 1020.0
20260509213404 53 12 1.7 6.1 0.00 0.00 0.00 68 1019.9
20260509212905 53 34 1.7 7.8 0.00 0.00 0.00 67 1019.8
20260509212404 53 16 2.6 8.7 0.00 0.00 0.00 67 1019.9